When you browse on this site, cookies collect data to enhance your experience and personalize the content and advertising you see.
Visit our Privacy Policy to learn more. By continuing to use the site, you agree to this use of cookies and data.
  • En España
  • Lista de países
  • Para 7 días
  • Temperatura del agua
  • El tiempo en el mapa
  • Informadores
  • user-avatar
    Iniciar sesión

    Tiempo cada hora Dorchester

    Hoy, 15 Septiembre, Domingo

    Tiempo Temperatura Precipitaciones Viento Presión Humedad
    00:00 +13°C° 0 mm 2 mps 766 mmHg 73%
    01:00 +13°C° 0 mm 2 mps 765 mmHg 75%
    02:00 +12°C° 0 mm 2 mps 765 mmHg 78%
    03:00 +11°C° 0 mm 3 mps 764 mmHg 80%
    04:00 +12°C° 0 mm 2 mps 764 mmHg 84%
    05:00 +12°C° 0 mm 2 mps 764 mmHg 87%
    06:00 +12°C° 0 mm 2 mps 764 mmHg 90%
    07:00 +14°C° 0 mm 2 mps 764 mmHg 82%
    08:00 +16°C° 0 mm 3 mps 764 mmHg 75%
    09:00 +18°C° 0 mm 3 mps 764 mmHg 67%
    10:00 +20°C° 0 mm 3 mps 764 mmHg 66%
    11:00 +21°C° 0 mm 3 mps 764 mmHg 64%
    12:00 +22°C° 0 mm 3 mps 764 mmHg 62%
    13:00 +24°C° 0 mm 3 mps 763 mmHg 63%
    14:00 +24°C° 0 mm 3 mps 763 mmHg 64%
    15:00 +24°C° 0 mm 3 mps 763 mmHg 64%
    16:00 +22°C° 0 mm 3 mps 763 mmHg 70%
    17:00 +21°C° 0 mm 2 mps 762 mmHg 76%
    18:00 +20°C° 0 mm 2 mps 762 mmHg 82%
    19:00 +19°C° 0 mm 2 mps 762 mmHg 85%
    20:00 +18°C° 0 mm 2 mps 762 mmHg 89%
    21:00 +18°C° 0 mm 1 mps 762 mmHg 92%
    22:00 +17°C° 0 mm 2 mps 762 mmHg 93%
    23:00 +16°C° 0 mm 2 mps 762 mmHg 94%

    Mañana, 16 Septiembre, Lunes

    Tiempo Temperatura Precipitaciones Viento Presión Humedad
    00:00 +16°C° 0 mm 2 mps 762 mmHg 95%
    01:00 +16°C° 0 mm 2 mps 762 mmHg 95%
    02:00 +16°C° 0 mm 2 mps 761 mmHg 95%
    03:00 +14°C° 0 mm 3 mps 761 mmHg 95%
    04:00 +14°C° 0 mm 3 mps 761 mmHg 94%
    05:00 +16°C° 0 mm 3 mps 760 mmHg 94%
    06:00 +16°C° 0 mm 3 mps 760 mmHg 93%
    07:00 +16°C° 0 mm 3 mps 760 mmHg 91%
    08:00 +17°C° 0 mm 3 mps 761 mmHg 88%
    09:00 +18°C° 0 mm 3 mps 761 mmHg 86%
    10:00 +18°C° 0 mm 3 mps 761 mmHg 83%
    11:00 +19°C° 0 mm 3 mps 761 mmHg 80%
    12:00 +20°C° 0 mm 3 mps 761 mmHg 78%
    13:00 +19°C° 0.1 mm 3 mps 761 mmHg 79%
    14:00 +19°C° 0.1 mm 3 mps 761 mmHg 80%
    15:00 +19°C° 0.1 mm 3 mps 761 mmHg 81%
    16:00 +18°C° 0 mm 3 mps 761 mmHg 82%
    17:00 +18°C° 0 mm 3 mps 761 mmHg 82%
    18:00 +17°C° 0 mm 2 mps 761 mmHg 82%
    19:00 +16°C° 0 mm 3 mps 762 mmHg 81%
    20:00 +16°C° 0 mm 3 mps 763 mmHg 80%
    21:00 +14°C° 0 mm 3 mps 763 mmHg 79%
    22:00 +13°C° 0 mm 3 mps 763 mmHg 81%
    23:00 +11°C° 0 mm 3 mps 764 mmHg 84%

    Pasado mañana, 17 Septiembre, Martes

    Tiempo Temperatura Precipitaciones Viento Presión Humedad
    00:00 +10°C° 0 mm 2 mps 764 mmHg 86%
    01:00 +10°C° 0 mm 2 mps 764 mmHg 88%
    02:00 +9°C° 0 mm 2 mps 764 mmHg 90%
    03:00 +9°C° 0 mm 2 mps 764 mmHg 93%
    04:00 +9°C° 0 mm 2 mps 764 mmHg 93%
    05:00 +8°C° 0 mm 2 mps 764 mmHg 94%
    06:00 +8°C° 0 mm 2 mps 764 mmHg 94%
    07:00 +10°C° 0 mm 2 mps 765 mmHg 86%
    08:00 +13°C° 0 mm 2 mps 765 mmHg 78%
    09:00 +14°C° 0 mm 2 mps 765 mmHg 70%
    10:00 +15°C° 0 mm 2 mps 765 mmHg 64%
    11:00 +16°C° 0 mm 3 mps 765 mmHg 59%
    12:00 +17°C° 0 mm 3 mps 765 mmHg 53%
    13:00 +18°C° 0 mm 3 mps 765 mmHg 51%
    14:00 +18°C° 0 mm 3 mps 764 mmHg 50%
    15:00 +19°C° 0 mm 3 mps 764 mmHg 48%
    16:00 +17°C° 0 mm 2 mps 764 mmHg 54%
    17:00 +16°C° 0 mm 2 mps 764 mmHg 59%
    18:00 +15°C° 0 mm 2 mps 764 mmHg 65%
    19:00 +14°C° 0 mm 2 mps 764 mmHg 67%
    20:00 +13°C° 0 mm 2 mps 765 mmHg 70%
    21:00 +12°C° 0 mm 2 mps 765 mmHg 72%
    22:00 +10°C° 0 mm 2 mps 765 mmHg 75%
    23:00 +10°C° 0 mm 2 mps 765 mmHg 78%

    18 Septiembre, Miércoles

    Tiempo Temperatura Precipitaciones Viento Presión Humedad
    00:00 +10°C° 0 mm 1 mps 766 mmHg 81%
    01:00 +10°C° 0 mm 1 mps 766 mmHg 82%
    02:00 +10°C° 0 mm 1 mps 766 mmHg 84%
    03:00 +9°C° 0 mm 1 mps 766 mmHg 85%
    04:00 +8°C° 0 mm 0 mps 766 mmHg 86%
    05:00 +8°C° 0 mm 0 mps 766 mmHg 86%
    06:00 +8°C° 0 mm 0 mps 766 mmHg 86%
    07:00 +10°C° 0 mm 0 mps 766 mmHg 79%
    08:00 +12°C° 0 mm 0 mps 766 mmHg 72%
    09:00 +14°C° 0 mm 0 mps 767 mmHg 65%
    10:00 +16°C° 0 mm 1 mps 767 mmHg 61%
    11:00 +18°C° 0 mm 1 mps 767 mmHg 58%
    12:00 +19°C° 0 mm 1 mps 767 mmHg 54%
    13:00 +19°C° 0 mm 1 mps 766 mmHg 55%
    14:00 +18°C° 0 mm 2 mps 766 mmHg 56%
    15:00 +19°C° 0 mm 2 mps 766 mmHg 57%
    16:00 +18°C° 0 mm 2 mps 766 mmHg 63%
    17:00 +17°C° 0 mm 2 mps 766 mmHg 68%
    18:00 +15°C° 0 mm 2 mps 766 mmHg 74%
    19:00 +15°C° 0 mm 2 mps 767 mmHg 77%
    20:00 +14°C° 0 mm 2 mps 767 mmHg 80%
    21:00 +13°C° 0 mm 2 mps 768 mmHg 83%
    22:00 +13°C° 0 mm 2 mps 768 mmHg 83%
    23:00 +13°C° 0 mm 2 mps 768 mmHg 84%

    19 Septiembre, Jueves

    Tiempo Temperatura Precipitaciones Viento Presión Humedad
    00:00 +12°C° 0 mm 2 mps 768 mmHg 84%
    01:00 +12°C° 0 mm 2 mps 768 mmHg 86%
    02:00 +10°C° 0 mm 2 mps 768 mmHg 88%
    03:00 +10°C° 0 mm 2 mps 768 mmHg 90%
    04:00 +9°C° 0 mm 2 mps 768 mmHg 92%
    05:00 +9°C° 0 mm 2 mps 768 mmHg 93%
    06:00 +8°C° 0 mm 2 mps 768 mmHg 94%
    07:00 +10°C° 0 mm 3 mps 769 mmHg 87%
    08:00 +12°C° 0 mm 3 mps 769 mmHg 80%
    09:00 +14°C° 0 mm 4 mps 769 mmHg 73%
    10:00 +15°C° 0 mm 4 mps 770 mmHg 68%
    11:00 +17°C° 0 mm 4 mps 770 mmHg 62%
    12:00 +18°C° 0 mm 4 mps 770 mmHg 57%
    13:00 +18°C° 0 mm 4 mps 769 mmHg 54%
    14:00 +18°C° 0 mm 4 mps 769 mmHg 51%
    15:00 +18°C° 0 mm 4 mps 769 mmHg 49%
    16:00 +17°C° 0 mm 3 mps 769 mmHg 52%
    17:00 +14°C° 0 mm 3 mps 769 mmHg 56%
    18:00 +13°C° 0 mm 3 mps 769 mmHg 60%
    19:00 +12°C° 0 mm 3 mps 769 mmHg 64%
    20:00 +11°C° 0 mm 3 mps 770 mmHg 69%
    21:00 +10°C° 0 mm 3 mps 770 mmHg 73%
    22:00 +9°C° 0 mm 3 mps 770 mmHg 75%
    23:00 +9°C° 0 mm 2 mps 770 mmHg 77%

    20 Septiembre, Viernes

    Tiempo Temperatura Precipitaciones Viento Presión Humedad
    00:00 +9°C° 0 mm 2 mps 770 mmHg 80%
    01:00 +8°C° 0 mm 2 mps 770 mmHg 81%
    02:00 +8°C° 0 mm 2 mps 769 mmHg 82%
    03:00 +8°C° 0 mm 2 mps 769 mmHg 83%
    04:00 +8°C° 0 mm 2 mps 769 mmHg 85%
    05:00 +7°C° 0 mm 3 mps 769 mmHg 86%
    06:00 +7°C° 0 mm 3 mps 769 mmHg 88%
    07:00 +9°C° 0 mm 3 mps 769 mmHg 81%
    08:00 +11°C° 0 mm 4 mps 769 mmHg 74%
    09:00 +13°C° 0 mm 4 mps 769 mmHg 67%
    10:00 +14°C° 0 mm 5 mps 768 mmHg 64%
    11:00 +15°C° 0 mm 5 mps 768 mmHg 60%
    12:00 +17°C° 0 mm 5 mps 767 mmHg 56%
    13:00 +17°C° 0 mm 5 mps 767 mmHg 55%
    14:00 +17°C° 0 mm 5 mps 766 mmHg 54%
    15:00 +17°C° 0 mm 5 mps 765 mmHg 53%
    16:00 +16°C° 0 mm 5 mps 765 mmHg 57%
    17:00 +14°C° 0 mm 5 mps 765 mmHg 61%
    18:00 +13°C° 0 mm 4 mps 764 mmHg 66%
    19:00 +12°C° 0 mm 4 mps 764 mmHg 70%
    20:00 +11°C° 0 mm 4 mps 764 mmHg 75%
    21:00 +10°C° 0 mm 4 mps 764 mmHg 79%
    22:00 +10°C° 0 mm 4 mps 764 mmHg 80%
    23:00 +10°C° 0 mm 4 mps 763 mmHg 80%
    Mostrar más